Starlink 32871

operational
NORAD ID: 62924 Int'l Des: 2025-027 Owner: SPXS Country: US Constellation: starlink
LEOCIRCULAR

Über Starlink 32871

Beschreibung wird geladen...

Live-Position

3D-Globus wird geladen...

Nächste Überflüge

Höhenverlauf

Altitude vs Time

uPlot chart will show altitude changes over time

Zweizeiliger Elementsatz

1 62924U 25027T 26034.50155200 .00029570 00000-0 10782-2 0 9995
2 62924 43.0014 321.9464 0003484 58.3526 301.7665 15.27623918 56311
Epoch: 3. Feb. 2026 • Age: 16 hours

Aktueller Status

Höhe 481.7 km
Geschwindigkeit 7.63 km/s
Subsatellitenpunkt 33.88°N, 170.09°E
Startdatum 8. Feb. 2025
Alter 0.9 years
Typ internet

Technische Details

Klassifizierung Payload
Masse 730.00 kg
Trockenmasse 700.00 kg
Gesamtmasse 730.00 kg
Länge 0.30 m
Durchmesser 4.10 m
Spannweite 29.00 m
Form Box + pan
Hersteller SPXS
Bus-Typ Starlink V2M
Phasenstatus In Orbit
Besitzer/Staat SPXS/US

Große Konstellationen

Loading constellations...